Wind_Speed
19 20 22 22 19 29 30 31 33 43 52 63 70 65 58 55 55 59 57 53 56 56 60 66 69 71 72 76 81 81 76 72
22 23 20 20 18 22 30 32 35 37 43 52 52 42 44 52 58 54 54 56 60 63 67 71 69 71 72 74 70 67 71 74
14 15 19 26 25 27 25 23 26 33 41 41 45 46 46 45 52 57 58 60 60 60 63 67 69 68 65 66 68 72 68 65
23 25 23 23 22 25 26 25 24 25 26 30 39 43 43 43 46 49 49 54 55 58 61 58 61 65 68 67 67 67 63 68
25 24 28 28 28 28 29 27 29 35 34 33 34 36 38 40 44 45 47 49 51 54 57 61 63 67 65 67 66 64 66 70
28 30 32 34 35 32 34 37 34 34 35 36 39 39 40 42 45 49 50 54 58 59 61 63 63 63 64 64 64 69 71 73
29 32 35 35 37 35 31 29 27 30 33 38 40 44 42 44 45 47 49 52 54 55 55 57 58 60 62 67 68 73 75 77
22 25 25 27 28 27 28 30 31 34 35 37 37 39 41 42 43 46 47 46 46 52 53 54 59 62 62 68 72 75 78 82
22 22 23 25 29 33 33 34 33 35 35 36 38 38 40 44 42 42 37 39 42 59 57 59 62 63 67 71 74 79 83 88
22 24 25 27 30 31 33 35 36 36 39 39 38 38 38 39 39 38 42 45 48 55 60 63 67 70 72 76 80 84 86 88
28 30 30 32 32 32 34 36 38 39 39 39 41 41 39 37 42 46 46 46 51 56 62 67 72 74 76 82 87 86 87 92
26 26 29 31 32 33 35 38 40 42 38 39 42 41 41 42 45 44 46 50 55 61 66 72 75 76 82 88 88 88 89 94
28 29 30 33 36 38 38 40 38 38 40 41 42 42 41 42 44 48 51 56 60 66 70 72 74 80 85 88 90 91 94 97
33 34 35 37 39 39 39 39 41 41 42 43 44 44 43 45 49 53 57 61 66 68 73 75 80 85 87 88 91 94 98 100
40 40 39 40 41 42 43 42 44 45 44 45 46 46 48 51 54 59 63 67 70 73 78 80 83 86 90 92 94 97 100 102
47 44 41 41 44 45 44 44 42 43 45 46 48 49 52 55 58 63 67 71 74 76 81 82 86 90 93 95 98 100 102 105
46 45 41 41 42 44 44 44 44 46 49 51 53 56 58 61 64 68 71 74 76 79 83 87 91 93 96 99 101 102 105 107
37 38 41 41 41 44 46 47 47 48 51 53 55 58 61 63 67 70 72 76 79 83 87 90 93 97 100 100 102 104 106 107
36 39 41 43 45 46 48 49 49 49 50 51 52 55 60 64 68 71 75 79 83 87 89 92 95 98 99 101 103 104 105 107
Wind_Direction
203 214 227 229 232 223 225 226 222 224 228 233 237 246 247 250 257 261 264 268 271 267 270 275 276 277 276 281 284 286 290 292
192 202 221 242 240 232 230 233 231 226 230 233 236 241 249 250 255 263 268 270 268 271 269 270 275 279 282 282 287 289 290 292
200 223 220 227 232 235 241 243 244 238 233 233 235 240 245 251 255 258 263 267 268 270 272 275 278 279 284 287 290 290 293 295
218 231 231 240 240 241 242 246 254 255 252 252 249 251 257 264 266 266 267 271 272 273 276 278 280 284 288 289 291 292 293 299
226 231 233 236 241 247 253 252 254 251 261 263 267 265 265 268 267 266 269 268 272 277 280 282 285 287 290 290 291 292 296 298
232 239 235 235 239 260 247 263 265 262 261 261 258 260 262 266 268 268 272 277 278 280 282 283 286 287 289 291 294 295 295 298
243 246 251 257 258 263 263 261 257 255 253 253 256 262 266 268 271 275 279 280 279 279 280 283 286 289 291 293 296 296 297 299
236 243 247 249 253 253 254 253 253 256 257 258 263 270 272 272 274 276 274 274 279 284 284 286 287 289 295 296 294 294 298 301
237 238 242 249 254 255 257 258 259 264 269 272 271 269 269 270 274 271 274 277 279 273 284 285 285 288 292 295 296 299 300 301
239 245 245 246 249 253 258 262 266 271 271 272 273 266 263 267 272 278 276 277 280 283 286 287 292 293 293 297 299 298 300 302
256 256 257 256 258 265 269 269 268 272 273 263 262 260 258 260 264 266 272 279 281 283 285 289 290 291 293 296 298 300 305 306
264 265 267 267 269 272 273 277 278 279 273 264 260 259 258 259 263 268 273 277 279 281 283 285 289 290 294 296 300 304 306 304
269 272 277 279 278 275 276 280 276 271 269 268 264 262 261 263 268 271 275 277 278 279 282 286 288 292 295 299 303 305 305 305
267 275 279 282 281 279 281 277 273 269 268 267 265 264 263 264 268 274 277 277 279 282 286 288 291 293 298 302 304 304 304 305
271 277 279 281 278 278 276 275 273 271 271 270 269 266 266 269 272 274 275 276 280 284 288 290 295 299 301 303 304 303 304 307
271 273 275 275 277 278 276 276 271 272 274 272 269 267 269 271 274 275 278 281 283 286 291 295 298 299 301 303 303 305 306 307
272 274 274 272 272 273 271 274 271 276 278 276 272 270 272 274 276 278 281 284 289 293 296 297 298 300 303 303 303 305 306 307
272 275 276 277 277 278 277 276 275 276 279 277 273 271 273 276 278 281 285 290 294 295 296 298 301 302 301 301 303 304 305 306
266 269 276 281 282 282 282 284 284 283 283 281 278 276 277 280 284 289 292 294 294 296 298 300 300 299 300 301 302 304 305 306
Height
10622 10626 10628 10632 10635 10638 10641 10644 10648 10651 10654 10657 10661 10662 10663 10664 10664 10662 10662 10664 10662 10662 10660 10656 10653 10649 10645 10641 10636 10631 10625 10619
10620 10624 10626 10629 10631 10633 10635 10638 10642 10644 10646 10649 10652 10653 10654 10655 10656 10655 10653 10653 10654 10652 10649 10645 10641 10636 10631 10628 10622 10616 10610 10604
10621 10622 10624 10626 10627 10628 10629 10632 10634 10637 10639 10642 10643 10645 10645 10646 10648 10646 10644 10641 10641 10637 10634 10631 10626 10621 10619 10613 10607 10602 10596 10589
10616 10618 10619 10621 10623 10625 10626 10627 10629 10630 10632 10633 10635 10635 10635 10636 10635 10635 10633 10628 10627 10624 10621 10616 10612 10608 10604 10598 10593 10586 10582 10575
10610 10613 10615 10617 10618 10620 10621 10622 10623 10624 10624 10624 10625 10627 10626 10626 10625 10625 10622 10618 10616 10612 10608 10603 10598 10595 10588 10583 10578 10573 10567 10562
10605 10606 10607 10610 10611 10612 10613 10614 10615 10615 10616 10616 10616 10616 10616 10615 10615 10612 10610 10606 10603 10600 10594 10591 10585 10581 10575 10570 10564 10558 10552 10545
10599 10601 10602 10602 10603 10604 10605 10606 10608 10608 10609 10609 10608 10606 10606 10604 10602 10601 10598 10595 10591 10588 10583 10579 10574 10568 10563 10556 10550 10543 10537 10529
10593 10595 10595 10596 10597 10598 10598 10599 10600 10599 10600 10598 10597 10596 10594 10593 10592 10591 10588 10585 10580 10576 10572 10567 10561 10556 10550 10544 10537 10529 10523 10513
10588 10589 10591 10591 10591 10591 10591 10591 10591 10589 10589 10588 10586 10584 10582 10580 10578 10578 10576 10574 10575 10565 10560 10554 10549 10544 10537 10530 10523 10513 10505 10495
10584 10585 10585 10585 10585 10584 10584 10583 10582 10581 10578 10577 10575 10573 10571 10569 10568 10567 10566 10562 10558 10551 10544 10539 10533 10528 10521 10514 10506 10497 10486 10475
10576 10577 10577 10577 10577 10577 10576 10574 10571 10571 10568 10566 10564 10563 10562 10561 10559 10557 10553 10548 10544 10539 10532 10525 10518 10512 10505 10497 10488 10480 10467 10453
10567 10568 10568 10568 10568 10567 10565 10563 10560 10558 10556 10555 10553 10553 10552 10550 10548 10544 10540 10536 10531 10526 10519 10512 10505 10497 10489 10479 10469 10459 10450 10437
10559 10559 10559 10559 10558 10556 10555 10552 10550 10548 10546 10543 10542 10541 10540 10539 10537 10533 10529 10524 10518 10512 10505 10498 10490 10483 10473 10462 10449 10440 10429 10415
10550 10550 10549 10548 10547 10546 10543 10541 10538 10537 10536 10535 10534 10532 10529 10527 10523 10520 10516 10510 10503 10497 10489 10483 10475 10465 10454 10444 10433 10421 10408 10396
10540 10540 10540 10538 10536 10535 10532 10530 10528 10526 10526 10524 10522 10520 10518 10515 10511 10506 10500 10495 10489 10483 10474 10467 10457 10445 10434 10424 10414 10403 10389 10375
10531 10531 10529 10528 10526 10524 10522 10520 10517 10516 10514 10512 10510 10507 10504 10501 10497 10491 10486 10479 10474 10469 10458 10449 10438 10427 10416 10405 10394 10382 10368 10354
10520 10519 10519 10518 10517 10514 10512 10510 10508 10505 10503 10500 10498 10494 10491 10487 10482 10477 10471 10464 10458 10450 10440 10430 10419 10408 10397 10385 10373 10361 10346 10333
10508 10506 10505 10505 10504 10503 10502 10500 10497 10495 10492 10488 10485 10482 10478 10474 10468 10463 10457 10449 10441 10432 10422 10412 10401 10389 10378 10365 10352 10341 10328 10312
10499 10497 10496 10494 10492 10490 10489 10486 10484 10481 10478 10475 10472 10469 10464 10460 10454 10448 10440 10432 10422 10413 10404 10394 10382 10369 10356 10343 10330 10318 10305 10289